Indiana, PA

4:49 AM EDT on May 27, 2017 (GMT -0400)
Indiana County-Stewart

Weather History for KIDI - November, 2012

Change the Weather History Date:

Thursday, November 8, 2012

  Actual Average Record
Temperature  
Mean Temperature 32 °F -  
Max Temperature 44 °F 52 °F 72 °F (1986)
Min Temperature 21 °F 34 °F 17 °F (1960)
Degree Days  
Heating Degree Days 32    
Moisture  
Dew Point 26 °F    
Average Humidity 80    
Maximum Humidity 100    
Minimum Humidity 49    
Precipitation  
Precipitation 0.00 in - - ()
Sea Level Pressure  
Sea Level Pressure 30.08 in    
Wind  
Wind Speed 3 mph (WNW)    
Max Wind Speed 13 mph    
Max Gust Speed 18 mph    
Visibility 10 miles    
Events      
Averages and records for this station are not official NWS values.
T = Trace of Precipitation, MM = Missing Value Source: NWS Daily Summary

Daily Weather History Graph

Daily Weather History Graph

Search for Another Location

Airport or City:

Trip Planner

Search our weather history database for the weather conditions in past years. The results will help you decide how hot, cold, wet, or windy it might be!

Date:

Astronomy

Nov. 08, 2012 Rise Set
Actual Time 6:55 AM EST 5:04 PM EST
Civil Twilight 6:26 AM EST 5:33 PM EST
Nautical Twilight 5:53 AM EST 6:06 PM EST
Astronomical Twilight 5:21 AM EST 6:38 PM EST
Moon 12:47 AM EST (11/8) 1:46 PM EST (11/8)
Length of Visible Light 11h 06m
Length of Day
10h 09m
Waning Crescent, 33% of the Moon is Illuminated
Nov 8
Waning Crescent
Nov 13
New
Nov 20
First Quarter
Nov 28
Full
Dec 6
Last Quarter

Hourly Weather History & Observations

Time (EST) Temp. Windchill Dew Point Humidity Pressure Visibility Wind Dir Wind Speed Gust Speed Precip Events Conditions
12:15 AM 30.2 °F - 21.2 °F 69% 30.01 in 10.0 mi Calm Calm - N/A   Unknown
12:35 AM 30.2 °F - 21.2 °F 69% 30.01 in 10.0 mi Calm Calm - N/A   Unknown
12:55 AM 30.2 °F - 21.2 °F 69% 30.01 in 10.0 mi Calm Calm - N/A   Unknown
1:15 AM 28.4 °F - 21.2 °F 74% 30.00 in 10.0 mi Calm Calm - N/A   Unknown
1:35 AM 28.4 °F - 23.0 °F 80% 30.00 in 10.0 mi Calm Calm - N/A   Unknown
1:55 AM 26.6 °F - 24.8 °F 93% 30.00 in 10.0 mi Calm Calm - N/A   Unknown
2:15 AM 26.6 °F - 24.8 °F 93% 30.01 in 10.0 mi Calm Calm - N/A   Unknown
2:35 AM 26.6 °F - 24.8 °F 93% 30.01 in 10.0 mi Calm Calm - N/A   Unknown
2:55 AM 24.8 °F - 23.0 °F 93% 30.01 in 10.0 mi Calm Calm - N/A   Unknown
3:15 AM 24.8 °F - 24.8 °F 100% 30.02 in 10.0 mi Calm Calm - N/A   Unknown
3:35 AM 24.8 °F - 23.0 °F 93% 30.02 in 10.0 mi Calm Calm - N/A   Unknown
3:55 AM 23.0 °F - 23.0 °F 100% 30.03 in 10.0 mi Calm Calm - N/A   Unknown
4:15 AM 23.0 °F - 23.0 °F 100% 30.03 in 10.0 mi Calm Calm - N/A   Unknown
4:35 AM 23.0 °F - 23.0 °F 100% 30.02 in 10.0 mi Calm Calm - N/A   Unknown
4:55 AM 23.0 °F - 23.0 °F 100% 30.03 in 10.0 mi Calm Calm - N/A   Unknown
5:15 AM 21.2 °F - 21.2 °F 100% 30.03 in 10.0 mi Calm Calm - N/A   Unknown
5:35 AM 21.2 °F - 21.2 °F 100% 30.03 in 10.0 mi Calm Calm - N/A   Unknown
5:55 AM 21.2 °F - 21.2 °F 100% 30.04 in 10.0 mi Calm Calm - N/A   Unknown
6:15 AM 21.2 °F - 21.2 °F 100% 30.04 in 10.0 mi Calm Calm - N/A   Unknown
6:35 AM 21.2 °F - 21.2 °F 100% 30.06 in 10.0 mi Calm Calm - N/A   Unknown
6:55 AM 21.2 °F - 21.2 °F 100% 30.06 in 10.0 mi Calm Calm - N/A   Unknown
7:15 AM 21.2 °F - 21.2 °F 100% 30.06 in 10.0 mi Calm Calm - N/A   Unknown
7:35 AM 21.2 °F - 21.2 °F 100% 30.07 in 10.0 mi Calm Calm - N/A   Unknown
7:55 AM 23.0 °F - 23.0 °F 100% 30.08 in 10.0 mi Calm Calm - N/A   Unknown
8:15 AM 24.8 °F - 24.8 °F 100% 30.10 in 10.0 mi Calm Calm - N/A   Unknown
8:35 AM 26.6 °F - 26.6 °F 100% 30.10 in 10.0 mi Calm Calm - N/A   Unknown
8:55 AM 26.6 °F 22.6 °F 26.6 °F 100% 30.10 in 10.0 mi WSW 3.5 mph - N/A   Unknown
9:15 AM 28.4 °F 23.3 °F 26.6 °F 93% 30.11 in 10.0 mi West 4.6 mph - N/A   Unknown
9:35 AM 30.2 °F 25.4 °F 28.4 °F 93% 30.11 in 10.0 mi NNW 4.6 mph - N/A   Unknown
9:55 AM 32.0 °F 25.6 °F 28.4 °F 87% 30.12 in 10.0 mi NW 6.9 mph - N/A   Unknown
10:15 AM 33.8 °F 27.0 °F 28.4 °F 81% 30.12 in 10.0 mi WNW 8.1 mph - N/A   Unknown
10:35 AM 35.6 °F 29.9 °F 26.6 °F 70% 30.12 in 10.0 mi NW 6.9 mph - N/A   Unknown
10:55 AM 35.6 °F 29.9 °F 26.6 °F 70% 30.11 in 10.0 mi NW 6.9 mph - N/A   Unknown
11:15 AM 37.4 °F 30.8 °F 26.6 °F 65% 30.11 in 10.0 mi NW 9.2 mph - N/A   Unknown
11:35 AM 37.4 °F 30.3 °F 26.6 °F 65% 30.10 in 10.0 mi NW 10.4 mph - N/A   Unknown
11:55 AM 39.2 °F 32.5 °F 26.6 °F 61% 30.10 in 10.0 mi NW 10.4 mph - N/A   Unknown
12:15 PM 41.0 °F 35.2 °F 26.6 °F 57% 30.09 in 10.0 mi NNW 9.2 mph - N/A   Unknown
12:35 PM 42.8 °F 37.0 °F 26.6 °F 53% 30.08 in 10.0 mi WNW 10.4 mph - N/A   Unknown
12:55 PM 42.8 °F 36.6 °F 26.6 °F 53% 30.07 in 10.0 mi WNW 11.5 mph - N/A   Unknown
1:15 PM 42.8 °F 36.2 °F 26.6 °F 53% 30.07 in 10.0 mi NW 12.7 mph - N/A   Unknown
1:55 PM 44.6 °F 38.8 °F 26.6 °F 49% 30.06 in 10.0 mi WNW 11.5 mph 17.3 mph N/A   Unknown
2:15 PM 44.6 °F 38.4 °F 28.4 °F 53% 30.06 in 10.0 mi WNW 12.7 mph - N/A   Unknown
2:35 PM 44.6 °F 38.8 °F 26.6 °F 49% 30.06 in 10.0 mi NNW 11.5 mph 16.1 mph N/A   Unknown
2:55 PM 44.6 °F 39.2 °F 28.4 °F 53% 30.06 in 10.0 mi NW 10.4 mph - N/A   Unknown
3:15 PM 44.6 °F 39.7 °F 28.4 °F 53% 30.06 in 10.0 mi NW 9.2 mph 18.4 mph N/A   Unknown
3:35 PM 44.6 °F 38.8 °F 28.4 °F 53% 30.06 in 10.0 mi NW 11.5 mph 16.1 mph N/A   Unknown
3:55 PM 44.6 °F 39.2 °F 28.4 °F 53% 30.06 in 10.0 mi NW 10.4 mph - N/A   Unknown
4:15 PM 44.6 °F 39.7 °F 30.2 °F 57% 30.06 in 10.0 mi WNW 9.2 mph 16.1 mph N/A   Unknown
4:35 PM 42.8 °F 37.0 °F 28.4 °F 57% 30.07 in 10.0 mi WNW 10.4 mph - N/A   Unknown
4:55 PM 42.8 °F 39.3 °F 28.4 °F 57% 30.08 in 10.0 mi WNW 5.8 mph - N/A   Unknown
5:15 PM 39.2 °F 35.0 °F 28.4 °F 65% 30.08 in 10.0 mi WNW 5.8 mph - N/A   Unknown
5:35 PM 39.2 °F 35.9 °F 30.2 °F 70% 30.09 in 10.0 mi West 4.6 mph - N/A   Unknown
5:55 PM 39.2 °F 35.9 °F 30.2 °F 70% 30.10 in 10.0 mi West 4.6 mph - N/A   Unknown
6:15 PM 37.4 °F 33.8 °F 30.2 °F 75% 30.11 in 7.0 mi WNW 4.6 mph - N/A   Unknown
6:35 PM 39.2 °F 35.0 °F 30.2 °F 70% 30.11 in 10.0 mi WNW 5.8 mph - N/A   Unknown
6:55 PM 37.4 °F 33.8 °F 30.2 °F 75% 30.11 in 10.0 mi WNW 4.6 mph - N/A   Unknown
7:15 PM 37.4 °F 32.8 °F 30.2 °F 75% 30.11 in 10.0 mi WNW 5.8 mph - N/A   Unknown
7:35 PM 37.4 °F 32.1 °F 30.2 °F 75% 30.12 in 10.0 mi WNW 6.9 mph - N/A   Unknown
7:55 PM 37.4 °F 32.1 °F 30.2 °F 75% 30.12 in 10.0 mi NW 6.9 mph - N/A   Unknown
8:15 PM 37.4 °F 33.8 °F 30.2 °F 75% 30.12 in 10.0 mi NW 4.6 mph - N/A   Unknown
8:35 PM 35.6 °F 32.8 °F 30.2 °F 81% 30.12 in 10.0 mi NW 3.5 mph - N/A   Unknown
8:55 PM 35.6 °F 31.7 °F 30.2 °F 81% 30.13 in 10.0 mi NW 4.6 mph - N/A   Unknown
9:15 PM 35.6 °F - 30.2 °F 81% 30.13 in 10.0 mi Calm Calm - N/A   Unknown
9:35 PM 33.8 °F - 30.2 °F 87% 30.14 in 10.0 mi Calm Calm - N/A   Unknown
9:55 PM 32.0 °F - 30.2 °F 93% 30.14 in 10.0 mi Calm Calm - N/A   Unknown
10:15 PM 32.0 °F - 30.2 °F 93% 30.14 in 10.0 mi Calm Calm - N/A   Unknown
10:35 PM 30.2 °F - 30.2 °F 100% 30.14 in 10.0 mi Calm Calm - N/A   Unknown
10:55 PM 30.2 °F - 30.2 °F 100% 30.13 in 10.0 mi Calm Calm - N/A   Unknown
11:15 PM 30.2 °F - 28.4 °F 93% 30.13 in 10.0 mi Calm Calm - N/A   Unknown
11:35 PM 28.4 °F - 28.4 °F 100% 30.14 in 10.0 mi Calm Calm - N/A   Unknown
11:55 PM 28.4 °F - 28.4 °F 100% 30.14 in 10.0 mi Calm Calm - N/A   Unknown